Location: Palmerston North
(40.3500°S, 175.6170°E)
Time: 04:26:25
(UTC+13:00)

Cosmos 2360 Rocket - Pass Details

Date: 24 January 2019
Orbit: 834 x 845 km, 71.0° (Epoch: 18 February)

Event Time Altitude Azimuth Distance (km) Brightness Sun altitude
Exits shadow 22:43:37 - 338° (NNW) 2,941 4.8 -19.0°
Reaches altitude 10° 22:44:52 10° 338° (NNW) 2,470 4.4 -19.2°
Maximum altitude 22:50:33 88° 247° (WSW) 860 2.2 -19.9°
Drops below altitude 10° 22:56:19 10° 157° (SSE) 2,496 5.0 -20.6°
Sets 22:58:47 0° 156° (SSE) 3,436 5.8 -20.9°
